WetterOnline ( https://www.wetteronline.de )

Wetter aktuell Bremervörde

Aktuelles Wetter: Bremervörde (5m)

6-stündlich | Neueste Meldungen
Ortszeit Temperatur Wetter
So, 19.05. 20:00 16.2° C bewölkt
So, 19.05. 14:00 21.4° C leicht bewölkt
So, 19.05. 8:00 13.6° C bedeckt
So, 19.05. 2:00 13.5° C bedeckt
Sa, 18.05. 20:00 19.5° C wolkig
Sa, 18.05. 14:00 21.5° C bewölkt
Sa, 18.05. 8:00 14.5° C bewölkt
Sa, 18.05. 2:00 12.4° C leicht bewölkt
Ortszeit Temperatur Wetter
So, 19.05. 22:00 15.2° C bedeckt
So, 19.05. 21:50 15.2° C bedeckt
So, 19.05. 21:40 15.2° C bedeckt
So, 19.05. 21:30 15.3° C leichter Regen
So, 19.05. 21:20 15.3° C leichter Regen
So, 19.05. 21:10 15.3° C bedeckt
So, 19.05. 21:00 15.5° C wolkig
So, 19.05. 20:30 15.9° C wolkig
So, 19.05. 20:00 16.2° C bewölkt
So, 19.05. 19:30 16.8° C bedeckt
So, 19.05. 19:00 16.4° C wolkig
Ortszeit Relative Feuchte Sichtweite
So, 19.05. 20:00 85% 50 km
So, 19.05. 14:00 57% 55 km
So, 19.05. 8:00 82% 27 km
So, 19.05. 2:00 83% 40 km
Sa, 18.05. 20:00 51% 45 km
Sa, 18.05. 14:00 39% 55 km
Sa, 18.05. 8:00 73% 40 km
Sa, 18.05. 2:00 76% 45 km
Ortszeit Relative Feuchte Sichtweite
So, 19.05. 22:00 84% 50 km
So, 19.05. 21:50 84% -
So, 19.05. 21:40 88% -
So, 19.05. 21:30 91% 19 km
So, 19.05. 21:20 91% -
So, 19.05. 21:10 90% -
So, 19.05. 21:00 87% 50 km
So, 19.05. 20:30 87% 50 km
So, 19.05. 20:00 85% 50 km
So, 19.05. 19:30 76% 55 km
So, 19.05. 19:00 79% 55 km
Ortszeit Niederschlagsmenge Niederschlagsart
So, 19.05. 20:00 3 l/m2 in 12 Std. Regen
So, 19.05. 14:00 0.1 l/m2 in 6 Std. Regen
So, 19.05. 8:00 0.1 l/m2 in 12 Std. -
So, 19.05. 2:00 0.1 l/m2 in 6 Std. Regen
Sa, 18.05. 20:00 0.0 l/m2 in 12 Std. -
Sa, 18.05. 14:00 0.0 l/m2 in 6 Std. -
Sa, 18.05. 8:00 0.0 l/m2 in 12 Std. -
Sa, 18.05. 2:00 0.0 l/m2 in 6 Std. -
Ortszeit Niederschlagsmenge Niederschlagsart
So, 19.05. 22:00 0.4 l/m2 in 1 Std. Regen
So, 19.05. 21:50 keine Meldung -
So, 19.05. 21:40 keine Meldung -
So, 19.05. 21:30 <0.05 l/m2 in 30 Min -
So, 19.05. 21:20 keine Meldung -
So, 19.05. 21:10 keine Meldung -
So, 19.05. 21:00 0.0 l/m2 in 1 Std. -
So, 19.05. 20:30 0.0 l/m2 in 30 Min -
So, 19.05. 20:00 0.0 l/m2 in 1 Std. Regen
So, 19.05. 19:30 0.0 l/m2 in 30 Min -
So, 19.05. 19:00 <0.05 l/m2 in 1 Std. -
Ortszeit Stärke Spitze Richtung
km/h Bft. km/h Grad Sektor
So, 19.05. 20:00 4 1 40 280° W
So, 19.05. 14:00 22 4 33 10° N
So, 19.05. 8:00 9 2 19 70° O
So, 19.05. 2:00 4 1 25 50° NO
Sa, 18.05. 20:00 11 2 32 70° O
Sa, 18.05. 14:00 19 3 37 60° NO
Sa, 18.05. 8:00 7 2 15 40° NO
Sa, 18.05. 2:00 7 2 32 30° NO
Ortszeit Stärke Spitze Richtung
km/h Bft. km/h Grad Sektor
So, 19.05. 22:00 7 2 11 310° NW
So, 19.05. 21:50 7 2 - 310° NW
So, 19.05. 21:40 4 1 - 280° W
So, 19.05. 21:30 6 1 9 10° N
So, 19.05. 21:20 6 1 - 10° N
So, 19.05. 21:10 4 1 - 310° NW
So, 19.05. 21:00 7 2 11 290° W
So, 19.05. 20:30 6 1 9 270° W
So, 19.05. 20:00 4 1 7 280° W
So, 19.05. 19:30 4 1 7 250° W
So, 19.05. 19:00 0 0 11 - -
Ortszeit Untergrenze Bedeckung Gattung
total tief tief mittel hoch
So, 19.05. 20:00 3000 m 7/8 7/8 - - -
So, 19.05. 14:00 1170 m 4/8 3/8 - - -
So, 19.05. 8:00 1800 m 8/8 8/8 - - -
So, 19.05. 2:00 3300 m 8/8 8/8 - - -
Sa, 18.05. 20:00 2400 m 6/8 4/8 - - -
Sa, 18.05. 14:00 1800 m 7/8 7/8 - - -
Sa, 18.05. 8:00 2400 m 7/8 7/8 - - -
Sa, 18.05. 2:00 2700 m 2/8 2/8 - - -
Ortszeit Bedeckungsgrad in Achtel und Wolkenuntergrenze
So, 19.05. 22:00 1(1110m) 6(2100m) 8(2700m)
So, 19.05. 21:50 1(1110m) 6(2100m) 8(2700m)
So, 19.05. 21:40 8
So, 19.05. 21:30 4(1260m) 5(1500m) 8(3000m)
So, 19.05. 21:20 4(1260m) 5(1500m) 8(3000m)
So, 19.05. 21:10 8
So, 19.05. 21:00 3(1500m) 7(3000m) 7(3600m)
So, 19.05. 20:30 2(1500m) 5(2400m) 7(3600m)
So, 19.05. 20:00 4(3000m) 4(3900m) 7(5100m)
So, 19.05. 19:30 8(3300m) 8(4500m)
So, 19.05. 19:00 3(2100m) 6(3000m) 8(6600m)
Ortszeit Luftdruck NN (hPa) Tendenz (hPa in 3 Std.)
So, 19.05. 20:00 1010 0,0
So, 19.05. 14:00 1010 - 1,1
So, 19.05. 8:00 1011 + 0,8
So, 19.05. 2:00 1011 - 0,2
Sa, 18.05. 20:00 1010 - 0,5
Sa, 18.05. 14:00 1011 - 0,4
Sa, 18.05. 8:00 1012 + 0,7
Sa, 18.05. 2:00 1011 + 0,2
Ortszeit Luftdruck NN (hPa) Tendenz (hPa in 3 Std.)
So, 19.05. 22:00 1010 + 1,0
So, 19.05. 21:50 1010 keine Meldung
So, 19.05. 21:40 1010 keine Meldung
So, 19.05. 21:30 1010 + 0,9
So, 19.05. 21:20 1010 keine Meldung
So, 19.05. 21:10 1010 keine Meldung
So, 19.05. 21:00 1010 + 0,6
So, 19.05. 20:30 1010 - 0,1
So, 19.05. 20:00 1010 0,0
So, 19.05. 19:30 1010 - 0,1
So, 19.05. 19:00 1009 - 0,4
Ortszeit Schneehöhe (cm)
So, 19.05. 20:00 0
So, 19.05. 14:00 0
So, 19.05. 8:00 0
So, 19.05. 2:00 0
Sa, 18.05. 20:00 0
Sa, 18.05. 14:00 0
Sa, 18.05. 8:00 0
Sa, 18.05. 2:00 0
Ortszeit Schneehöhe (cm)
So, 19.05. 22:00 0
So, 19.05. 21:50 0
So, 19.05. 21:40 -
So, 19.05. 21:30 0
So, 19.05. 21:20 0
So, 19.05. 21:10 -
So, 19.05. 21:00 0
So, 19.05. 20:30 0
So, 19.05. 20:00 0
So, 19.05. 19:30 0
So, 19.05. 19:00 0
Link zu dieser Seite / Seite empfehlen

Das Wetter in ...